H1 CPF 2 NER 2021 10 30 9 303 01 glonass132 H2 1401201 9132 39620 2021 10 30 0 0 0 2021 11 2 23 45 0 900 1 1 0 0 0 1 H9 10 0 59517 0.00000 0 -6978225.663 -8063691.107 -23156549.347 10 0 59517 900.00000 0 -4476839.126 -9473636.252 -23237724.971 10 0 59517 1800.00000 0 -2104422.326 -11060078.061 -22866726.072 10 0 59517 2700.00000 0 82766.810 -12778208.181 -22050620.329 10 0 59517 3600.00000 0 2037721.774 -14574417.413 -20805161.330 10 0 59517 4500.00000 0 3724425.410 -16388443.872 -19154491.227 10 0 59517 5400.00000 0 5119119.739 -18155822.479 -17130676.941 10 0 59517 6300.00000 0 6211054.535 -19810533.151 -14773088.294 10 0 59517 7200.00000 0 7002683.438 -21287735.999 -12127629.796 10 0 59517 8100.00000 0 7509300.011 -22526477.769 -9245841.068 10 0 59517 9000.00000 0 7758130.069 -23472254.595 -6183883.751 10 0 59517 9900.00000 0 7786919.898 -24079321.877 -3001435.564 10 0 59517 10800.00000 0 7642081.764 -24312652.889 239485.866 10 0 59517 11700.00000 0 7376477.108 -24149462.671 3475745.072 10 0 59517 12600.00000 0 7046933.321 -23580232.444 6644331.314 10 0 59517 13500.00000 0 6711601.296 -22609191.335 9683596.028 10 0 59517 14400.00000 0 6427267.453 -21254235.532 12534459.810 10 0 59517 15300.00000 0 6246735.489 -19546289.035 15141564.496 10 0 59517 16200.00000 0 6216389.554 -17528133.960 17454347.505 10 0 59517 17100.00000 0 6374042.329 -15252760.524 19428017.719 10 0 59517 18000.00000 0 6747158.754 -12781306.955 21024414.408 10 0 59517 18900.00000 0 7351529.833 -10180676.120 22212733.678 10 0 59517 19800.00000 0 8190451.621 -7520928.665 22970109.686 10 0 59517 20700.00000 0 9254443.005 -4872561.102 23282040.904 10 0 59517 21600.00000 0 10521513.387 -2303781.284 23142654.783 10 0 59517 22500.00000 0 11957968.475 122106.870 22554807.127 10 0 59517 23400.00000 0 13519720.216 2349102.433 21530015.446 10 0 59517 24300.00000 0 15154046.226 4330592.863 20088228.377 10 0 59517 25200.00000 0 16801725.746 6031041.355 18257436.030 10 0 59517 26100.00000 0 18399463.673 7427208.183 16073128.798 10 0 59517 27000.00000 0 19882502.480 8508857.339 13577614.672 10 0 59517 27900.00000 0 21187314.041 9278920.810 10819207.551 10 0 59517 28800.00000 0 22254259.897 9753114.972 7851301.380 10 0 59517 29700.00000 0 23030109.619 9959026.173 4731347.014 10 0 59517 30600.00000 0 23470312.480 9934704.363 1519750.553 10 0 59517 31500.00000 0 23540927.551 9726823.986 -1721286.366 10 0 59517 32400.00000 0 23220131.153 9388489.344 -4928962.696 10 0 59517 33300.00000 0 22499237.901 8976776.599 -8041088.014 10 0 59517 34200.00000 0 21383191.487 8550115.619 -10997283.349 10 0 59517 35100.00000 0 19890503.327 8165621.868 -13740149.865 10 0 59517 36000.00000 0 18052639.962 7876490.835 -16216382.859 10 0 59517 36900.00000 0 15912883.144 7729565.133 -18377809.363 10 0 59517 37800.00000 0 13524708.474 7763177.447 -20182329.095 10 0 59517 38700.00000 0 10949748.587 8005361.208 -21594740.254 10 0 59517 39600.00000 0 8255424.426 8472505.663 -22587433.626 10 0 59517 40500.00000 0 5512342.135 9168513.550 -23140941.048 10 0 59517 41400.00000 0 2791563.061 10084498.632 -23244326.870 10 0 59517 42300.00000 0 161860.107 11199037.690 -22895413.973 10 0 59517 43200.00000 0 -2312925.626 12478968.193 -22100839.063 10 0 59517 44100.00000 0 -4576317.763 13880699.794 -20875935.136 10 0 59517 45000.00000 0 -6581325.485 15351985.761 -19244442.462 10 0 59517 45900.00000 0 -8292163.546 16834080.740 -17238052.817 10 0 59517 46800.00000 0 -9685499.464 18264194.419 -14895795.118 10 0 59517 47700.00000 0 -10751175.629 19578137.595 -12263274.075 10 0 59517 48600.00000 0 -11492376.477 20713048.553 -9391776.633 10 0 59517 49500.00000 0 -11925234.434 21610083.780 -6337263.955 10 0 59517 50400.00000 0 -12077892.380 22216958.271 -3159269.440 10 0 59517 51300.00000 0 -11989063.767 22490226.941 80274.632 10 0 59517 52200.00000 0 -11706153.107 22397209.669 3318257.612 10 0 59517 53100.00000 0 -11283018.348 21917477.862 6491632.729 10 0 59517 54000.00000 0 -10777471.952 21043839.347 9538655.473 10 0 59517 54900.00000 0 -10248628.382 19782780.022 12400092.718 10 0 59517 55800.00000 0 -9754211.878 18154344.078 15020378.060 10 0 59517 56700.00000 0 -9347939.540 16191458.524 17348690.484 10 0 59517 57600.00000 0 -9077090.980 13938731.242 19339935.463 10 0 59517 58500.00000 0 -8980367.147 11450773.858 20955609.952 10 0 59517 59400.00000 0 -9086128.207 8790120.276 22164535.551 10 0 59517 60300.00000 0 -9411083.803 6024828.078 22943446.994 10 0 59517 61200.00000 0 -9959489.723 3225862.728 23277426.081 10 0 59517 62100.00000 0 -10722883.554 464372.752 23160174.278 10 0 59517 63000.00000 0 -11680369.475 -2191032.041 22594120.161 10 0 59517 63900.00000 0 -12799439.473 -4676887.786 21590360.821 10 0 59517 64800.00000 0 -14037296.288 -6937263.070 20168439.208 10 0 59517 65700.00000 0 -15342622.788 -8925827.779 18355962.142 10 0 59517 66600.00000 0 -16657724.144 -10607520.555 16188066.364 10 0 59517 67500.00000 0 -17920953.971 -11959747.671 13706742.587 10 0 59517 68400.00000 0 -19069323.832 -12973065.312 10960029.884 10 0 59517 69300.00000 0 -20041187.832 -13651318.303 8001095.138 10 0 59517 70200.00000 0 -20778890.762 -14011230.639 4887214.334 10 0 59517 71100.00000 0 -21231269.466 -14081465.707 1678674.347 10 0 59517 72000.00000 0 -21355902.882 -13901195.858 -1562384.359 10 0 59517 72900.00000 0 -21121016.283 -13518241.444 -4773162.564 10 0 59517 73800.00000 0 -20506959.299 -12986857.324 -7891412.163 10 0 59517 74700.00000 0 -19507194.741 -12365259.640 -10856637.975 10 0 59517 75600.00000 0 -18128755.401 -11712996.713 -13611268.537 10 0 59517 76500.00000 0 -16392147.941 -11088274.590 -16101773.296 10 0 59517 77400.00000 0 -14330706.017 -10545349.921 -18279704.426 10 0 59517 78300.00000 0 -11989417.674 -10132100.264 -20102642.969 10 0 59517 79200.00000 0 -9423273.936 -9887874.723 -21535030.667 10 0 59517 80100.00000 0 -6695205.762 -9841716.295 -22548870.881 10 0 59517 81000.00000 0 -3873693.699 -10011031.931 -23124284.510 10 0 59517 81900.00000 0 -1030148.497 -10400767.643 -23249909.429 10 0 59517 82800.00000 0 1763829.081 -11003124.921 -22923134.840 10 0 59517 83700.00000 0 4439195.776 -11797831.914 -22150165.111 10 0 59517 84600.00000 0 6932106.519 -12752959.451 -20945910.807 10 0 59517 85500.00000 0 9186338.043 -13826248.737 -19333708.093 10 0 59518 0.00000 0 11155394.065 -14966895.599 -17344871.235 10 0 59518 900.00000 0 12804204.797 -16117717.156 -15018085.068 10 0 59518 1800.00000 0 14110346.937 -17217607.917 -12398651.632 10 0 59518 2700.00000 0 15064736.642 -18204183.204 -9537601.995 10 0 59518 3600.00000 0 15671764.136 -19016495.807 -6490693.535 10 0 59518 4500.00000 0 15948866.213 -19597710.439 -3317311.988 10 0 59518 5400.00000 0 15925555.798 -19897621.489 -79300.990 10 0 59518 6300.00000 0 15641951.195 -19874906.277 3160256.789 10 0 59518 7200.00000 0 15146869.066 -19499017.431 6338281.492 10 0 59518 8100.00000 0 14495563.914 -18751633.622 9392935.311 10 0 59518 9000.00000 0 13747211.644 -17627606.978 12264833.692 10 0 59518 9900.00000 0 12962245.433 -16135367.278 14898203.898 10 0 59518 10800.00000 0 12199657.888 -14296766.248 17241967.969 10 0 59518 11700.00000 0 11514384.284 -12146369.092 19250729.068 10 0 59518 12600.00000 0 10954877.547 -9730223.731 20885642.532 10 0 59518 13500.00000 0 10560976.839 -7104159.865 22115155.781 10 0 59518 14400.00000 0 10362158.635 -4331689.247 22915604.097 10 0 59518 15300.00000 0 10376242.596 -1481594.793 23271652.258 10 0 59518 16200.00000 0 10608605.182 1374691.625 23176575.094 10 0 59518 17100.00000 0 11051932.619 4165814.713 22632373.033 10 0 59518 18000.00000 0 11686522.341 6823212.746 21649721.593 10 0 59518 18900.00000 0 12481119.398 9283715.096 20247756.682 10 0 59518 19800.00000 0 13394252.322 11491914.556 18453700.277 10 0 59518 20700.00000 0 14376012.445 13402218.008 16302333.758 10 0 59518 21600.00000 0 15370202.478 14980492.379 13835328.693 10 0 59518 22500.00000 0 16316764.978 16205239.294 11100447.314 10 0 59518 23400.00000 0 17154389.682 17068251.029 8150627.279 10 0 59518 24300.00000 0 17823191.188 17574721.659 5042967.403 10 0 59518 25200.00000 0 18267345.299 17742809.540 1837632.933 10 0 59518 26100.00000 0 18437573.767 17602669.865 -1403299.317 10 0 59518 27000.00000 0 18293373.151 17194997.922 -4617034.435 10 0 59518 27900.00000 0 17804893.771 16569144.049 -7741269.063 10 0 59518 28800.00000 0 16954389.033 15780879.104 -10715394.125 10 0 59518 29700.00000 0 15737172.968 14889904.038 -13481667.676 10 0 59518 30600.00000 0 14162044.129 13957207.955 -15986335.255 10 0 59518 31500.00000 0 12251156.112 13042385.608 -18180675.921 10 0 59518 32400.00000 0 10039337.907 12201027.170 -20021953.574 10 0 59518 33300.00000 0 7572890.261 11482290.335 -21474254.845 10 0 59518 34200.00000 0 4907906.152 10926757.370 -22509196.834 10 0 59518 35100.00000 0 2108183.478 10564668.022 -23106490.474 10 0 59518 36000.00000 0 -757184.790 10414603.560 -23254347.892 10 0 59518 36900.00000 0 -3616443.825 10482678.448 -22949725.051 10 0 59518 37800.00000 0 -6397924.813 10762274.864 -22198394.038 10 0 59518 38700.00000 0 -9032793.549 11234332.402 -21014842.619 10 0 59518 39600.00000 0 -11457685.272 11868181.796 -19422002.011 10 0 59518 40500.00000 0 -13617115.736 12622888.274 -17450807.286 10 0 59518 41400.00000 0 -15465567.551 13449048.322 -15139598.200 10 0 59518 42300.00000 0 -16969164.150 14290963.957 -12533371.725 10 0 59518 43200.00000 0 -18106861.128 15089102.214 -9682900.732 10 0 59518 44100.00000 0 -18871105.068 15782734.964 -6643736.303 10 0 59518 45000.00000 0 -19267932.571 16312646.153 -3475113.918 10 0 59518 45900.00000 0 -19316506.312 16623790.467 -238785.907 10 0 59518 46800.00000 0 -19048109.005 16667789.375 3002195.706 10 0 59518 47700.00000 0 -18504639.462 16405157.574 6184720.638 10 0 59518 48600.00000 0 -17736676.240 15807164.532 9246860.420 10 0 59518 49500.00000 0 -16801192.722 14857251.685 12129081.660 10 0 59518 50400.00000 0 -15759022.040 13551945.165 14775407.811 10 0 59518 51300.00000 0 -14672180.489 11901225.625 17134506.385 10 0 59518 52200.00000 0 -13601163.437 9928339.931 19160680.496 10 0 59518 53100.00000 0 -12602328.233 7669063.186 20814745.908 10 0 59518 54000.00000 0 -11725474.156 5170442.539 22064777.660 10 0 59518 54900.00000 0 -11011720.434 2489075.617 22886713.073 10 0 59518 55800.00000 0 -10491770.266 -311004.405 23264801.045 10 0 59518 56700.00000 0 -10184632.095 -3160749.388 23191890.538 10 0 59518 57600.00000 0 -10096850.073 -5988722.571 22669554.182 10 0 59518 58500.00000 0 -10222274.278 -8723822.717 21708045.826 10 0 59518 59400.00000 0 -10542378.919 -11297994.573 20326093.780 10 0 59518 60300.00000 0 -11027114.141 -13648815.075 18550534.159 10 0 59518 61200.00000 0 -11636255.129 -15721849.803 16415791.505 10 0 59518 62100.00000 0 -12321191.814 -17472683.873 13963216.340 10 0 59518 63000.00000 0 -13027084.376 -18868544.668 11240291.778 10 0 59518 63900.00000 0 -13695294.625 -19889450.336 8299723.661 10 0 59518 64800.00000 0 -14265991.844 -20528837.470 5198430.808 10 0 59518 65700.00000 0 -14680824.282 -20793642.585 1996453.823 10 0 59518 66600.00000 0 -14885544.490 -20703834.369 -1244197.256 10 0 59518 67500.00000 0 -14832478.333 -20291416.448 -4460735.044 10 0 59518 68400.00000 0 -14482733.637 -19598942.224 -7590804.188 10 0 59518 69300.00000 0 -13808054.974 -18677603.722 -10573684.981 10 0 59518 70200.00000 0 -12792245.506 -17584974.191 -13351468.209 10 0 59518 71100.00000 0 -11432094.617 -16382498.772 -15870178.601 10 0 59518 72000.00000 0 -9737770.476 -15132838.245 -18080824.981 10 0 59518 72900.00000 0 -7732658.878 -13897177.197 -19940356.676 10 0 59518 73800.00000 0 -5452652.678 -12732609.598 -21412507.361 10 0 59518 74700.00000 0 -2944919.222 -11689711.825 -22468509.515 10 0 59518 75600.00000 0 -266194.893 -10810405.435 -23087665.165 10 0 59518 76500.00000 0 2519324.111 -10126200.067 -23257761.161 10 0 59518 77400.00000 0 5342408.472 -9656891.092 -22975320.094 10 0 59518 78300.00000 0 8131440.114 -9409767.576 -22245681.098 10 0 59518 79200.00000 0 10815164.836 -9379364.765 -21082907.960 10 0 59518 80100.00000 0 13325438.777 -9547772.261 -19509525.321 10 0 59518 81000.00000 0 15599854.154 -9885485.520 -17556087.200 10 0 59518 81900.00000 0 17584134.304 -10352765.012 -15260585.471 10 0 59518 82800.00000 0 19234197.379 -10901445.627 -12667709.383 10 0 59518 83700.00000 0 20517801.867 -11477119.338 -9827970.446 10 0 59518 84600.00000 0 21415704.680 -12021597.924 -6796709.990 10 0 59518 85500.00000 0 21922283.178 -12475550.265 -3633009.563 10 0 59519 0.00000 0 22045595.498 -12781200.978 -398526.720 10 0 59519 900.00000 0 21806877.598 -12884974.615 2843721.482 10 0 59519 1800.00000 0 21239499.519 -12739971.500 6030597.605 10 0 59519 2700.00000 0 20387426.864 -12308169.559 9100085.793 10 0 59519 3600.00000 0 19303254.104 -11562257.491 11992506.681 10 0 59519 4500.00000 0 18045894.719 -10487021.405 14651682.319 10 0 59519 5400.00000 0 16678027.338 -9080226.110 17026027.596 10 0 59519 6300.00000 0 15263406.727 -7352954.038 19069546.982 10 0 59519 7200.00000 0 13864153.693 -5329387.927 20742717.622 10 0 59519 8100.00000 0 12538137.916 -3046046.820 22013242.670 10 0 59519 9000.00000 0 11336563.132 -550507.703 22856661.599 10 0 59519 9900.00000 0 10301854.868 2100333.592 23256807.163 10 0 59519 10800.00000 0 9465937.655 4842389.900 23206101.844 10 0 59519 11700.00000 0 8848971.962 7606810.700 22705689.540 10 0 59519 12600.00000 0 8458601.814 10322610.518 21765401.206 10 0 59519 13500.00000 0 8289742.661 12919389.982 20403556.052 10 0 59519 14400.00000 0 8324916.819 15330038.225 18646602.584 10 0 59519 15300.00000 0 8535121.262 17493306.182 16528606.538 10 0 59519 16200.00000 0 8881190.688 19356145.747 14090595.234 10 0 59519 17100.00000 0 9315598.443 20875719.333 11379770.327 10 0 59519 18000.00000 0 9784619.866 22020997.621 8448603.358 10 0 59519 18900.00000 0 10230767.590 22773880.139 5353830.525 10 0 59519 19800.00000 0 10595396.963 23129792.751 2155365.089 10 0 59519 20700.00000 0 10821372.488 23097737.437 -1084852.440 10 0 59519 21600.00000 0 10855683.384 22699792.392 -4304044.910 10 0 59519 22500.00000 0 10651898.159 21970083.098 -7439807.578 10 0 59519 23400.00000 0 10172354.498 20953266.997 -10431312.529 10 0 59519 24300.00000 0 9389991.426 19702594.700 -13220485.491 10 0 59519 25200.00000 0 8289745.383 18277628.357 -15753132.330 10 0 59519 26100.00000 0 6869449.812 16741712.319 -17979993.342 10 0 59519 27000.00000 0 5140198.367 15159301.661 -19857704.736 10 0 59519 27900.00000 0 3126154.126 13593260.291 -21349648.466 10 0 59519 28800.00000 0 863810.362 12102241.846 -22426673.415 10 0 59519 29700.00000 0 -1599268.726 10738263.295 -23067673.511 10 0 59519 30600.00000 0 -4206177.027 9544573.253 -23260010.868 10 0 59519 31500.00000 0 -6892795.060 8553904.940 -22999774.933 10 0 59519 32400.00000 0 -9590230.903 7787187.616 -22291871.729 10 0 59519 33300.00000 0 -12227472.815 7252771.204 -21149940.463 10 0 59519 34200.00000 0 -14734143.489 6946197.250 -19596098.127 10 0 59519 35100.00000 0 -17043241.126 6850526.228 -17660516.158 10 0 59519 36000.00000 0 -19093752.639 6937207.552 -15380836.601 10 0 59519 36900.00000 0 -20833029.067 7167455.423 -12801438.713 10 0 59519 37800.00000 0 -22218823.159 7494071.854 -9972570.138 10 0 59519 38700.00000 0 -23220903.097 7863638.835 -6949359.824 10 0 59519 39600.00000 0 -23822174.199 8218985.584 -3790732.684 10 0 59519 40500.00000 0 -24019261.483 8501824.799 -558248.201 10 0 59519 41400.00000 0 -23822529.053 8655444.475 2685113.056 10 0 59519 42300.00000 0 -23255536.419 8627339.504 5876189.738 10 0 59519 43200.00000 0 -22353956.080 8371669.971 8952881.199 10 0 59519 44100.00000 0 -21163999.689 7851440.783 11855364.654 10 0 59519 45000.00000 0 -19740420.968 7040309.533 14527263.179 10 0 59519 45900.00000 0 -18144181.257 5923945.740 16916741.339 10 0 59519 46800.00000 0 -16439877.414 4500884.034 18977507.048 10 0 59519 47700.00000 0 -14693041.232 2782835.616 20669700.655 10 0 59519 48600.00000 0 -12967424.168 794445.255 21960654.951 10 0 59519 49500.00000 0 -11322380.996 -1427495.601 22825512.722 10 0 59519 50400.00000 0 -9810461.070 -3835346.377 23247691.378 10 0 59519 51300.00000 0 -8475306.548 -6372371.443 23219187.353 10 0 59519 52200.00000 0 -7349943.485 -8974878.000 22740715.867 10 0 59519 53100.00000 0 -6455535.159 -11574649.443 21821684.673 10 0 59519 54000.00000 0 -5800647.537 -14101574.232 20480003.204 10 0 59519 54900.00000 0 -5381055.538 -16486362.426 18741731.328 10 0 59519 55800.00000 0 -5180096.595 -18663238.601 16640574.596 10 0 59519 56700.00000 0 -5169555.401 -20572500.943 14217235.408 10 0 59519 57600.00000 0 -5311042.024 -22162841.734 11518631.960 10 0 59519 58500.00000 0 -5557805.267 -23393334.017 8596999.222 10 0 59519 59400.00000 0 -5856905.188 -24235002.820 5508888.313 10 0 59519 60300.00000 0 -6151653.749 -24671916.153 2314082.525 10 0 59519 61200.00000 0 -6384221.340 -24701750.544 -925549.889 10 0 59519 62100.00000 0 -6498299.781 -24335807.477 -4147244.830 10 0 59519 63000.00000 0 -6441709.769 -23598479.693 -7288551.059 10 0 59519 63900.00000 0 -6168842.807 -22526189.058 -10288535.396 10 0 59519 64800.00000 0 -5642834.126 -21165839.765 -13088961.446 10 0 59519 65700.00000 0 -4837374.136 -19572850.748 -15635419.120 10 0 59519 66600.00000 0 -3738080.717 -17808848.988 -17878382.950 10 0 59519 67500.00000 0 -2343372.794 -15939119.511 -19774178.593 10 0 59519 68400.00000 0 -664806.289 -14029918.317 -21285838.522 10 0 59519 69300.00000 0 1273144.022 -12145760.334 -22383829.871 10 0 59519 70200.00000 0 3433850.158 -10346795.736 -23046639.848 10 0 59519 71100.00000 0 5769814.501 -8686384.424 -23261206.718 10 0 59519 72000.00000 0 8224419.820 -7208970.465 -23023187.164 10 0 59519 72900.00000 0 10734074.570 -5948345.820 -22337053.997 10 0 59519 73800.00000 0 13230665.293 -4926376.458 -21216021.271 10 0 59519 74700.00000 0 15644214.561 -4152244.757 -19681797.315 10 0 59519 75600.00000 0 17905633.830 -3622240.194 -17764169.519 10 0 59519 76500.00000 0 19949455.978 -3320107.166 -15500428.192 10 0 59519 77400.00000 0 21716432.629 -3217935.075 -12934640.235 10 0 59519 78300.00000 0 23155886.730 -3277552.500 -10116786.612 10 0 59519 79200.00000 0 24227720.855 -3452365.573 -7101780.663 10 0 59519 80100.00000 0 24903996.165 -3689561.498 -3948387.113 10 0 59519 81000.00000 0 25170015.227 -3932582.260 -718063.896 10 0 59519 81900.00000 0 25024863.118 -4123761.918 2526249.336 10 0 59519 82800.00000 0 24481384.458 -4207013.837 5721370.801 10 0 59519 83700.00000 0 23565598.328 -4130452.232 8805118.619 10 0 59519 84600.00000 0 22315577.021 -3848835.435 11717529.786 10 0 59519 85500.00000 0 20779837.488 -3325726.370 14402031.205 10 0 59520 0.00000 0 19015314.977 -2535278.225 16806539.230 10 0 59520 900.00000 0 17085004.600 -1463569.184 18884467.509 10 0 59520 1800.00000 0 15055373.459 -109431.203 20595620.756 10 0 59520 2700.00000 0 12993649.361 1515263.134 21906962.359 10 0 59520 3600.00000 0 10965101.979 3385866.280 22793238.974 10 0 59520 4500.00000 0 9030428.692 5465762.729 23237452.837 10 0 59520 5400.00000 0 7243353.165 7707683.381 23231174.116 10 0 59520 6300.00000 0 5648535.119 10055472.549 22774688.773 10 0 59520 7200.00000 0 4279876.391 12446234.351 21876980.394 10 0 59520 8100.00000 0 3159291.641 14812770.033 20555547.319 10 0 59520 9000.00000 0 2295992.661 17086205.994 18836059.124 10 0 59520 9900.00000 0 1686314.204 19198704.551 16751859.212 10 0 59520 10800.00000 0 1314086.829 21086146.259 14343322.838 10 0 59520 11700.00000 0 1151539.954 22690673.641 11657082.272 10 0 59520 12600.00000 0 1160696.492 23962991.694 8745133.259 10 0 59520 13500.00000 0 1295200.236 24864330.368 5663839.022 10 0 59520 14400.00000 0 1502499.226 25367987.853 2472849.957 10 0 59520 15300.00000 0 1726293.528 25460390.510 -766040.914 10 0 59520 16200.00000 0 1909144.693 25141625.064 -3990085.513 10 0 59520 17100.00000 0 1995137.189 24425420.375 -7136788.956 10 0 59520 18000.00000 0 1932479.708 23338578.765 -10145115.478 10 0 59520 18900.00000 0 1675936.407 21919879.809 -12956669.018 10 0 59520 19800.00000 0 1188984.932 20218501.344 -15516825.705 10 0 59520 20700.00000 0 445609.266 18292022.747 -17775796.203 10 0 59520 21600.00000 0 -568349.617 16204092.980 -19689597.229 10 0 59520 22500.00000 0 -1854344.024 14021860.026 -21220913.140 10 0 59520 23400.00000 0 -3400808.581 11813268.547 -22339830.433 10 0 59520 24300.00000 0 -5183403.536 9644338.184 -23024430.459 10 0 59520 25200.00000 0 -7165804.542 7576535.993 -23261228.208 10 0 59520 26100.00000 0 -9301008.158 5664352.793 -23045447.847 10 0 59520 27000.00000 0 -11533100.484 3953184.866 -22381128.819 10 0 59520 27900.00000 0 -13799416.665 2477609.791 -21281059.430 10 0 59520 28800.00000 0 -16033002.026 1260128.896 -19766538.258 10 0 59520 29700.00000 0 -18165272.517 310429.186 -17866967.098 10 0 59520 30600.00000 0 -20128763.231 -374804.312 -15619282.532 10 0 59520 31500.00000 0 -21859849.335 -811518.095 -13067236.755 10 0 59520 32400.00000 0 -23301324.630 -1027377.880 -10260541.436 10 0 59520 33300.00000 0 -24404728.498 -1060353.880 -7253891.502 10 0 59520 34200.00000 0 -25132322.434 -956864.759 -4105888.585 10 0 59520 35100.00000 0 -25458632.233 -769560.434 -877886.110 10 0 59520 36000.00000 0 -25371490.429 -554839.500 2367220.158 10 0 59520 36900.00000 0 -24872535.009 -370208.419 5566230.946 10 0 59520 37800.00000 0 -23977143.887 -271596.291 8656886.024 10 0 59520 38700.00000 0 -22713808.760 -310740.725 11579084.958 10 0 59520 39600.00000 0 -21122976.007 -532756.797 14276061.105 10 0 59520 40500.00000 0 -19255404.832 -973992.908 16695485.427 10 0 59520 41400.00000 0 -17170113.055 -1660264.569 18790478.566 10 0 59520 42300.00000 0 -14931998.016 -2605540.639 20520511.829 10 0 59520 43200.00000 0 -12609233.050 -3811137.016 21852180.573 10 0 59520 44100.00000 0 -10270548.717 -5265451.190 22759836.265 10 0 59520 45000.00000 0 -7982512.014 -6944248.196 23226066.487 10 0 59520 45900.00000 0 -5806916.069 -8811485.574 23242015.252 10 0 59520 46800.00000 0 -3798387.500 -10820642.687 22807538.995 10 0 59520 47700.00000 0 -2002309.143 -12916499.008 21931196.536 10 0 59520 48600.00000 0 -453142.305 -15037287.776 20630074.215 10 0 59520 49500.00000 0 826783.976 -17117136.188 18929450.113 10 0 59520 50400.00000 0 1827968.439 -19088691.576 16862304.009 10 0 59520 51300.00000 0 2553890.903 -20885825.566 14468682.265 10 0 59520 52200.00000 0 3020618.637 -22446304.905 11794929.212 10 0 59520 53100.00000 0 3255883.339 -23714318.845 8892799.135 10 0 59520 54000.00000 0 3297668.202 -24642758.691 5818464.921 10 0 59520 54900.00000 0 3192364.610 -25195155.051 2631441.494 10 0 59520 55800.00000 0 2992575.881 -25347192.101 -606556.034 10 0 59520 56700.00000 0 2754660.284 -25087735.451 -3832798.335 10 0 59520 57600.00000 0 2536116.500 -24419330.083 -6984749.638 10 0 59520 58500.00000 0 2392921.563 -23358146.668 -10001274.349 10 0 59520 59400.00000 0 2376933.521 -21933377.369 -12823819.454 10 0 59520 60300.00000 0 2533468.691 -20186105.143 -15397549.939 10 0 59520 61200.00000 0 2899156.345 -18167692.482 -17672415.116 10 0 59520 62100.00000 0 3500162.319 -15937755.664 -19604125.073 10 0 59520 63000.00000 0 4350857.885 -13561807.920 -21155018.084 10 0 59520 63900.00000 0 5452991.695 -11108668.995 -22294801.698 10 0 59520 64800.00000 0 6795401.744 -8647748.404 -23001152.707 10 0 59520 65700.00000 0 8354281.707 -6246315.212 -23260163.705 10 0 59520 66600.00000 0 10093992.698 -3966867.987 -23066626.798 10 0 59520 67500.00000 0 11968388.543 -1864714.593 -22424148.096 10 0 59520 68400.00000 0 13922600.826 14137.075 -21345089.798 10 0 59520 69300.00000 0 15895210.256 1634689.039 -19850339.989 10 0 59520 70200.00000 0 17820714.178 2974192.244 -17968913.716 10 0 59520 71100.00000 0 19632187.117 4022862.675 -15737392.291 10 0 59520 72000.00000 0 21264022.410 4784044.708 -13199211.219 10 0 59520 72900.00000 0 22654639.131 5273815.353 -10403810.459 10 0 59520 73800.00000 0 23749039.550 5520046.957 -7405663.700 10 0 59520 74700.00000 0 24501108.348 5560969.131 -4263206.298 10 0 59520 75600.00000 0 24875555.716 5443292.302 -1037683.720 10 0 59520 76500.00000 0 24849421.605 5219974.172 2208055.741 10 0 59520 77400.00000 0 24413077.226 4947725.628 5410798.904 10 0 59520 78300.00000 0 23570681.558 4684363.852 8508210.652 10 0 59520 79200.00000 0 22340074.059 4486126.568 11440056.341 10 0 59520 80100.00000 0 20752108.948 4405062.751 14149378.678 10 0 59520 81000.00000 0 18849460.193 4486611.299 16583605.561 10 0 59520 81900.00000 0 16684948.646 4767470.685 18695567.183 10 0 59520 82800.00000 0 14319462.681 5273849.620 20444402.968 10 0 59520 83700.00000 0 11819560.284 6020172.173 21796341.602 10 0 59520 84600.00000 0 9254853.256 7008291.284 22725340.357 10 0 59520 85500.00000 0 6695282.616 8227242.896 23213572.773 99